GW2742 Weather Reports


Display with metric or nautical units.
time (UTC)temp
F
wind
direction
speed
MPH
gust
MPH
rain 1hr
in
rain 24hr
in
rain mn
in
humidity
%
barometer
mb
20260505215023 46 53 9.0 23.0 0.00 0.00 0.00 49 1014.2
20260505214542 45 41 14.0 23.0 0.00 0.00 0.00 52 1014.3
20260505214024 46 14 13.0 22.0 0.00 0.00 0.00 49 1014.2
20260505213525 46 14 14.0 22.0 0.00 0.00 0.00 47 1014.3
20260505213039 47 46 10.0 16.0 0.00 0.00 0.00 48 1014.5
20260505212524 48 9 7.0 14.0 0.00 0.00 0.00 34 1014.4
20260505212023 48 322 5.0 16.0 0.00 0.00 0.00 45 1014.5
20260505211540 47 14 8.0 16.0 0.00 0.00 0.00 45 1014.3
20260505211022 48 49 8.0 15.0 0.00 0.00 0.00 43 1014.4
20260505210528 47 32 8.0 14.0 0.00 0.00 0.00 42 1014.4
20260505210042 48 66 4.0 12.0 0.00 0.00 0.00 43 1014.5
20260505205525 49 331 7.0 12.0 0.00 0.00 0.00 45 1014.6
20260505205028 49 359 6.0 11.0 0.00 0.00 0.00 34 1014.6
20260505204545 49 354 5.0 13.0 0.00 0.00 0.00 38 1014.5
20260505204023 47 356 5.0 20.0 0.00 0.00 0.00 43 1014.6
20260505203525 45 5 12.0 20.0 0.00 0.00 0.00 51 1014.9
20260505203052 45 6 9.0 18.0 0.00 0.00 0.00 53 1014.8
20260505202523 45 61 8.0 22.0 0.00 0.00 0.00 57 1014.8
20260505202023 43 28 11.0 22.0 0.00 0.00 0.00 56 1014.9
20260505201541 44 54 13.0 21.0 0.00 0.00 0.00 56 1015.0
20260505201024 45 65 13.0 21.0 0.00 0.00 0.00 55 1015.0
20260505200524 47 43 9.0 20.0 0.00 0.00 0.00 52 1015.0
20260505200038 49 338 9.0 17.0 0.00 0.00 0.00 42 1015.0
20260505195522 48 359 9.0 18.0 0.00 0.00 0.00 45 1014.9
20260505195022 47 321 7.0 20.0 0.00 0.00 0.00 46 1015.1
20260505194550 47 354 10.0 20.0 0.00 0.00 0.00 43 1014.9
20260505194026 47 342 10.0 18.0 0.00 0.00 0.00 46 1014.9
20260505193523 48 360 7.0 16.0 0.00 0.00 0.00 46 1014.9
20260505193038 48 319 6.0 15.0 0.00 0.00 0.00 45 1014.8
20260505192526 47 337 5.0 14.0 0.00 0.00 0.00 47 1015.0
20260505192024 47 341 8.0 17.0 0.00 0.00 0.00 46 1015.1
20260505191553 47 328 9.0 17.0 0.00 0.00 0.00 46 1015.0
20260505191025 48 345 9.0 17.0 0.00 0.00 0.00 44 1015.2
20260505190527 48 324 8.0 17.0 0.00 0.00 0.00 46 1015.1
20260505190041 48 347 8.0 17.0 0.00 0.00 0.00 43 1015.1
20260505185523 48 357 8.0 21.0 0.00 0.00 0.00 42 1015.2
20260505185025 48 342 9.0 21.0 0.00 0.00 0.00 41 1015.2
20260505184538 48 355 9.0 16.0 0.00 0.00 0.00 42 1015.1
20260505184025 48 332 5.0 16.0 0.00 0.00 0.00 43 1015.1
20260505183526 48 288 6.0 14.0 0.00 0.00 0.00 43 1015.2
20260505183043 47 323 8.0 14.0 0.00 0.00 0.00 44 1015.3
20260505182523 47 292 5.0 15.0 0.00 0.00 0.00 44 1015.3
20260505182024 47 332 5.0 15.0 0.00 0.00 0.00 44 1015.4
20260505181538 46 283 7.0 15.0 0.00 0.00 0.00 44 1015.4
20260505181025 47 322 6.0 15.0 0.00 0.00 0.00 44 1015.4
20260505180523 47 356 8.0 19.0 0.00 0.00 0.00 44 1015.4
20260505180047 47 290 6.0 19.0 0.00 0.00 0.00 46 1015.3
20260505175526 46 308 6.0 19.0 0.00 0.00 0.00 44 1015.4
20260505175026 46 330 6.0 14.0 0.00 0.00 0.00 45 1015.6
20260505174540 46 353 5.0 14.0 0.00 0.00 0.00 46 1015.6
20260505174022 46 347 6.0 13.0 0.00 0.00 0.00 45 1015.6
20260505173526 47 334 5.0 14.0 0.00 0.00 0.00 47 1015.7
20260505173036 46 340 6.0 14.0 0.00 0.00 0.00 48 1015.7
20260505172522 45 339 6.0 14.0 0.00 0.00 0.00 51 1015.7
20260505172022 43 306 5.0 17.0 0.00 0.00 0.00 50 1015.7
20260505171538 43 360 9.0 17.0 0.00 0.00 0.00 49 1015.8
20260505171024 44 343 6.0 15.0 0.00 0.00 0.00 48 1015.9
20260505170525 44 343 6.0 15.0 0.00 0.00 0.00 46 1015.7
20260505170037 44 345 7.0 15.0 0.00 0.00 0.00 44 1015.8
20260505165523 45 335 5.0 14.0 0.00 0.00 0.00 44 1015.8
20260505165023 45 357 7.0 14.0 0.00 0.00 0.00 43 1015.9
20260505164536 45 359 6.0 12.0 0.00 0.00 0.00 43 1016.0
20260505164024 45 352 5.0 12.0 0.00 0.00 0.00 44 1016.0
20260505163523 45 356 7.0 12.0 0.00 0.00 0.00 43 1016.0
20260505163037 44 321 5.0 17.0 0.00 0.00 0.00 42 1015.8
20260505162524 45 352 5.0 17.0 0.00 0.00 0.00 41 1015.9
20260505162023 46 351 6.0 16.0 0.00 0.00 0.00 43 1015.8
20260505161537 45 302 6.0 14.0 0.00 0.00 0.00 42 1016.0
20260505161023 45 321 5.0 12.0 0.00 0.00 0.00 42 1015.9
20260505160524 46 357 6.0 12.0 0.00 0.00 0.00 41 1015.8
20260505153036 45 35 2.0 6.0 0.00 0.00 0.00 43 1016.0
20260505152524 45 338 1.0 5.0 0.00 0.00 0.00 44 1016.1
20260505152026 44 34 1.0 4.0 0.00 0.00 0.00 48 1016.2
20260505151540 43 256 1.0 4.0 0.00 0.00 0.00 48 1016.2
20260505151026 43 127 1.0 4.0 0.00 0.00 0.00 51 1016.2
20260505150523 42 175 1.0 4.0 0.00 0.00 0.00 50 1016.2
20260505140525 39 236 2.0 4.0 0.00 0.00 0.00 60 1016.6
20260505125023 34 257 1.0 3.0 0.00 0.00 0.00 70 1015.8
20260505124550 33 198 1.0 3.0 0.00 0.00 0.00 71 1015.8
20260505124025 33 193 0.0 3.0 0.00 0.00 0.00 71 1015.8
20260505123523 33 0 0.0 3.0 0.00 0.00 0.00 71 1015.8
20260505123049 33 274 1.0 3.0 0.00 0.00 0.00 70 1015.7
20260505122523 33 0 0.0 2.0 0.00 0.00 0.00 70 1015.6
20260505122031 33 0 0.0 2.0 0.00 0.00 0.00 70 1015.5
20260505121607 33 0 0.0 2.0 0.00 0.00 0.00 69 1015.5
20260505121023 33 0 0.0 2.0 0.00 0.00 0.00 70 1015.4
20260505120522 33 274 1.0 2.0 0.00 0.00 0.00 69 1015.5
20260505120037 34 273 1.0 2.0 0.00 0.00 0.00 68 1015.4
20260505115522 34 0 0.0 2.0 0.00 0.00 0.00 68 1015.4
20260505115022 34 0 0.0 2.0 0.00 0.00 0.00 67 1015.4
20260505114536 34 0 1.0 2.0 0.00 0.00 0.00 66 1015.4
20260505114023 34 131 0.0 3.0 0.00 0.00 0.00 65 1015.3
20260505113522 35 0 0.0 4.0 0.00 0.00 0.00 65 1015.2
20260505113046 35 131 1.0 4.0 0.00 0.00 0.00 65 1015.2
20260505112530 35 89 1.0 2.0 0.00 0.00 0.00 65 1015.2
20260505112024 35 89 0.0 4.0 0.00 0.00 0.00 64 1015.1
20260505111540 36 0 0.0 4.0 0.00 0.00 0.00 63 1015.2
20260505111025 36 112 1.0 4.0 0.00 0.00 0.00 63 1015.2
20260505110526 36 112 2.0 4.0 0.00 0.00 0.00 62 1015.2
20260505102022 38 96 1.0 4.0 0.00 0.00 0.00 56 1015.0
20260505101544 39 0 0.0 4.0 0.00 0.00 0.00 55 1015.1
20260505101022 40 0 0.0 4.0 0.00 0.00 0.00 54 1015.0
20260505100524 40 0 0.0 7.0 0.00 0.00 0.00 54 1015.0
20260505100048 40 0 1.0 7.0 0.00 0.00 0.00 53 1014.9
20260505095526 41 321 3.0 7.0 0.00 0.00 0.00 53 1015.0
20260505095025 41 326 3.0 6.0 0.00 0.00 0.00 53 1015.0
20260505094542 41 293 3.0 7.0 0.00 0.00 0.00 52 1015.0
20260505094023 41 326 3.0 7.0 0.00 0.00 0.00 52 1015.0
20260505093523 41 332 3.0 5.0 0.00 0.00 0.00 53 1015.0
20260505093038 41 303 1.0 3.0 0.00 0.00 0.00 54 1015.1
20260505092523 42 323 1.0 3.0 0.00 0.00 0.00 53 1015.0
20260505092022 42 323 1.0 3.0 0.00 0.00 0.00 53 1015.0
20260505091549 42 0 1.0 5.0 0.00 0.00 0.00 52 1015.0
20260505091025 43 332 2.0 6.0 0.00 0.00 0.00 51 1015.0
20260505090522 43 339 2.0 6.0 0.00 0.00 0.00 51 1015.0
20260505090055 43 307 2.0 5.0 0.00 0.00 0.00 50 1014.9
20260505085522 43 305 2.0 5.0 0.00 0.00 0.00 50 1015.0
20260505085026 44 311 2.0 5.0 0.00 0.00 0.00 50 1014.9
20260505084538 44 327 2.0 5.0 0.00 0.00 0.00 50 1014.9
20260505084024 44 337 2.0 5.0 0.00 0.00 0.00 50 1015.0
20260505083525 44 340 3.0 6.0 0.00 0.00 0.00 49 1015.1
20260505083047 44 314 2.0 8.0 0.00 0.00 0.00 49 1015.1
20260505082527 45 323 2.0 8.0 0.00 0.00 0.00 49 1015.1
20260505082023 45 304 3.0 8.0 0.00 0.00 0.00 49 1015.0
20260505081543 44 327 2.0 6.0 0.00 0.00 0.00 50 1015.0
20260505081022 44 357 2.0 6.0 0.00 0.00 0.00 51 1015.1
20260505080526 45 311 1.0 10.0 0.00 0.00 0.00 52 1015.1
20260505080045 45 352 2.0 10.0 0.00 0.00 0.00 50 1015.2
20260505075522 45 49 3.0 10.0 0.00 0.00 0.00 50 1015.2
20260505075024 44 0 1.0 5.0 0.00 0.00 0.00 51 1015.2
20260505074539 45 351 2.0 5.0 0.00 0.00 0.00 51 1015.2
20260505074025 45 342 3.0 5.0 0.00 0.00 0.00 51 1015.2
20260505073524 45 4 1.0 5.0 0.00 0.00 0.00 51 1015.1
20260505073045 45 1 2.0 6.0 0.00 0.00 0.00 50 1015.2
20260505072526 45 28 3.0 6.0 0.00 0.00 0.00 49 1015.2
20260505072027 45 341 2.0 7.0 0.00 0.00 0.00 50 1015.0
20260505071543 45 352 4.0 7.0 0.00 0.00 0.00 51 1015.2
20260505071026 45 32 4.0 7.0 0.00 0.00 0.00 53 1015.2
20260505070523 45 13 2.0 7.0 0.00 0.00 0.00 56 1015.1
20260505070038 45 349 4.0 7.0 0.00 0.00 0.00 56 1015.0
20260505065523 45 344 3.0 6.0 0.00 0.00 0.00 56 1015.0
20260505065022 45 17 3.0 6.0 0.00 0.00 0.00 56 1015.1
20260505064536 45 340 2.0 6.0 0.00 0.00 0.00 57 1015.1
20260505064022 45 338 3.0 6.0 0.00 0.00 0.00 57 1015.0
20260505063522 45 359 2.0 7.0 0.00 0.00 0.00 56 1015.2
20260505063046 45 78 3.0 9.0 0.00 0.00 0.00 56 1015.1
20260505062522 45 12 3.0 9.0 0.00 0.00 0.00 56 1015.1
20260505062030 45 30 2.0 9.0 0.00 0.00 0.00 57 1015.2
20260505061539 45 60 4.0 9.0 0.00 0.00 0.00 57 1015.1
20260505061026 45 42 3.0 13.0 0.00 0.00 0.00 58 1015.1
20260505060527 45 30 3.0 13.0 0.00 0.00 0.00 58 1015.1
20260505060039 45 20 5.0 11.0 0.00 0.00 0.00 58 1015.0
20260505055528 45 22 5.0 13.0 0.00 0.00 0.00 58 1015.0
20260505055027 45 355 6.0 16.0 0.00 0.00 0.00 58 1015.0
20260505054558 45 2 7.0 16.0 0.00 0.00 0.00 58 1014.9
20260505054028 46 13 4.0 9.0 0.00 0.00 0.00 57 1014.9
20260505053528 47 356 4.0 10.0 0.00 0.00 0.00 54 1014.8
20260505053048 47 32 4.0 10.0 0.00 0.00 0.00 52 1014.6
20260505052527 48 321 6.0 10.0 0.00 0.00 0.00 51 1014.5
20260505052028 48 354 6.0 11.0 0.00 0.00 0.00 51 1014.5
20260505051542 48 356 5.0 11.0 0.00 0.00 0.00 51 1014.4
20260505051027 48 356 4.0 9.0 0.00 0.00 0.00 51 1014.3
20260505050528 48 319 4.0 9.0 0.00 0.00 0.00 51 1014.5
20260505041548 49 330 6.0 12.0 0.00 0.00 0.00 49 1014.2
20260505041026 49 325 6.0 11.0 0.00 0.00 0.00 49 1014.0
20260505040527 49 347 6.0 11.0 0.00 0.00 0.00 50 1014.0
20260505040042 49 333 4.0 7.0 0.00 0.00 0.00 50 1014.0
20260505035526 49 347 4.0 7.0 0.00 0.00 0.00 50 1014.0
20260505035026 49 13 3.0 7.0 0.00 0.00 0.00 50 1014.0
20260505034537 49 313 3.0 7.0 0.00 0.00 0.00 49 1014.0
20260505034027 49 336 2.0 7.0 0.00 0.00 0.00 49 1013.9
20260505033527 49 333 2.0 7.0 0.00 0.00 0.00 48 1013.8
20260505033037 49 274 2.0 7.0 0.00 0.00 0.00 49 1013.8
20260505032527 49 335 2.0 7.0 0.00 0.00 0.00 48 1013.8
20260505032026 49 307 3.0 9.0 0.00 0.00 0.00 48 1013.7
20260505031541 49 333 5.0 9.0 0.00 0.00 0.00 48 1013.6
20260505031028 49 1 3.0 12.0 0.00 0.00 0.00 48 1013.6
20260505030527 49 336 3.0 12.0 0.00 0.00 0.00 48 1013.5
20260505030053 49 353 4.0 9.0 0.00 0.00 0.00 48 1013.3
20260505025528 49 311 4.0 9.0 0.00 0.00 0.00 48 1013.4
20260505025026 49 330 3.0 9.0 0.00 0.00 0.00 48 1013.4
20260505024537 49 327 5.0 10.0 0.00 0.00 0.00 48 1013.3
20260505024026 49 352 5.0 12.0 0.00 0.00 0.00 48 1013.3
20260505023528 49 347 5.0 12.0 0.00 0.00 0.00 47 1013.2
20260505023042 50 325 5.0 15.0 0.00 0.00 0.00 47 1013.1
20260505022526 50 340 6.0 15.0 0.00 0.00 0.00 47 1013.2
20260505022027 50 338 5.0 11.0 0.00 0.00 0.00 47 1013.2
20260505021549 50 333 5.0 11.0 0.00 0.00 0.00 46 1013.0
20260505021026 50 1 5.0 11.0 0.00 0.00 0.00 46 1013.0
20260505020526 50 286 4.0 13.0 0.00 0.00 0.00 46 1012.9
20260505020049 50 347 5.0 15.0 0.00 0.00 0.00 46 1013.0
20260505015527 51 330 5.0 16.0 0.00 0.00 0.00 45 1012.8
20260505015026 51 314 7.0 16.0 0.00 0.00 0.00 45 1012.8
20260505014537 51 308 7.0 14.0 0.00 0.00 0.00 44 1012.7
20260505014026 51 304 6.0 16.0 0.00 0.00 0.00 44 1012.7
20260505013526 51 324 6.0 16.0 0.00 0.00 0.00 44 1012.8
20260505013043 52 314 5.0 12.0 0.00 0.00 0.00 43 1012.8
20260505012526 52 305 6.0 12.0 0.00 0.00 0.00 43 1012.8
20260505012026 52 333 5.0 12.0 0.00 0.00 0.00 43 1012.7
20260505011541 52 319 5.0 12.0 0.00 0.00 0.00 43 1012.7
20260505011026 52 324 5.0 14.0 0.00 0.00 0.00 43 1012.6
20260505010525 52 335 5.0 14.0 0.00 0.00 0.00 43 1012.7
20260505005527 52 359 5.0 11.0 0.00 0.00 0.00 43 1012.5
20260505005031 52 298 5.0 11.0 0.00 0.00 0.00 44 1012.5
20260505004536 52 309 6.0 12.0 0.00 0.00 0.00 43 1012.3
20260505004027 52 330 6.0 12.0 0.00 0.00 0.00 43 1012.4
20260505003527 52 328 6.0 12.0 0.00 0.00 0.00 43 1012.3
20260505003046 52 317 6.0 16.0 0.00 0.00 0.00 43 1012.3
20260505002529 52 319 7.0 16.0 0.00 0.00 0.00 43 1012.2
20260505002026 52 310 5.0 16.0 0.00 0.00 0.00 42 1012.1
20260505001539 53 327 7.0 16.0 0.00 0.00 0.00 42 1012.0
20260505001025 53 300 7.0 16.0 0.00 0.00 0.00 42 1012.0
20260505000528 53 311 7.0 15.0 0.00 0.00 0.00 43 1012.0
20260505000051 53 262 7.0 15.0 0.00 0.00 0.00 43 1011.9
20260504235527 53 328 8.0 15.0 0.00 0.00 0.00 42 1011.9
20260504235025 53 295 7.0 16.0 0.00 0.00 0.00 43 1011.8
20260504234539 53 305 7.0 16.0 0.00 0.00 0.00 43 1011.9
20260504234026 53 286 7.0 16.0 0.00 0.00 0.00 43 1011.8
20260504233526 53 278 6.0 17.0 0.00 0.00 0.00 43 1011.6
20260504233044 53 356 7.0 17.0 0.00 0.00 0.00 43 1011.6
20260504232522 53 280 7.0 14.0 0.00 0.00 0.00 43 1011.7
20260504232022 53 328 7.0 16.0 0.00 0.00 0.00 43 1011.6
20260504231537 53 316 7.0 16.0 0.00 0.00 0.00 43 1011.6
20260504231022 53 293 7.0 15.0 0.00 0.00 0.00 43 1011.6
20260504230523 53 332 6.0 19.0 0.00 0.00 0.00 44 1011.8
20260504230043 53 322 7.0 19.0 0.00 0.00 0.00 43 1011.7
20260504225523 53 330 8.0 18.0 0.00 0.00 0.00 41 1011.7
20260504225024 54 251 8.0 17.0 0.00 0.00 0.00 42 1011.6
20260504224550 55 331 7.0 17.0 0.00 0.00 0.00 41 1011.6
20260504224025 56 349 7.0 19.0 0.00 0.00 0.00 40 1011.7
20260504223523 56 322 9.0 19.0 0.00 0.00 0.00 40 1011.7
20260504223039 55 2 9.0 18.0 0.00 0.00 0.00 40 1011.7
20260504222522 55 314 8.0 16.0 0.00 0.00 0.00 41 1011.7
20260504222023 55 324 7.0 18.0 0.00 0.00 0.00 41 1011.8
20260504221539 55 341 9.0 18.0 0.00 0.00 0.00 41 1011.8
20260504221028 56 276 6.0 20.0 0.00 0.00 0.00 41 1011.8
20260504220525 56 51 9.0 20.0 0.00 0.00 0.00 41 1011.8
20260504220043 57 352 9.0 20.0 0.00 0.00 0.00 40 1011.6
20260504215524 57 343 9.0 19.0 0.00 0.00 0.00 41 1011.6